Regional Weather Roundup
Issued by NWS Albany, NY

Home | Current Version | Previous Version | Text Only | Print | Product List | Glossary On
Versions: 1 2 3 4 5 6 7 8 9 10 11 12 13 14 15 16 17 18 19 20 21 22 23 24 25 26 27 28 29 30 31 32 33 34 35 36 37 38 39 40 41 42 43 44 45 46 47 48 49
000
ASUS41 KALY 290310
RWRALY

NEW YORK STATE HOURLY WEATHER ROUNDUP
NATIONAL WEATHER SERVICE ALBANY NY
1100 PM EDT SAT MAR 28 2015

NOTE: "FAIR" INDICATES FEW OR NO CLOUDS BELOW 12,000 FEET WITH NO
SIGNIFICANT WEATHER AND/OR NO OBSTRUCTIONS TO VISIBILITY.

NYZ032-033-038>043-046>054-057>066-NYZ062>081-290400-
EAST


CITY           SKY/WX    TMP DP  RH WIND       PRES   REMARKS
ALBANY         CLOUDY    26  10  50 NW17      30.14R WCI  13
GLENS FALLS    CLEAR     24   4  42 NW8       30.13R WCI  15
POUGHKEEPSIE   CLOUDY    28  14  55 NW9       30.11R WCI  19
NEWBURGH       FLURRIES  25  18  74 NW16      30.10  WCI  12
MONTGOMERY     CLOUDY    26  12  55 NW10G20   30.10R WCI  16
WHITE PLAINS   MOCLDY    26  19  74 NW16      30.06R HAZE    WCI  14
ISLIP          LGT SNOW  29  25  85 NW21      30.04R VSB 1   WCI  16
NEW YORK CITY  FLURRIES  30  17  58 NW16      30.10R WCI  19
CENTRAL PARK   CLOUDY    29  14  53 N7        30.12R WCI  22
$$

NYZ005>009-017-018-044>046-055-056-290400-
CENTRAL


CITY           SKY/WX    TMP DP  RH WIND       PRES   REMARKS
FULTON         CLEAR     15  10  80 CALM      30.19R
SYRACUSE       CLEAR     20  10  65 CALM      30.19R
ROME           CLEAR     18   4  54 N5        30.20R WCI  11
ELMIRA         CLEAR     18   6  59 SW3       30.18R
BINGHAMTON     CLEAR     15   4  61 W3        30.10R
MONTICELLO     CLEAR     19   3  49 NW9G17    30.09R WCI   9
$$

NYZ026>034-041>043-290400-
NORTH


CITY           SKY/WX    TMP DP  RH WIND       PRES   REMARKS
WATERTOWN      CLEAR     19   7  59 S6        30.18R WCI  11
FORT DRUM      NOT AVBL
MASSENA        CLEAR     20   4  50 SW5       30.16R WCI  13
SARANAC LAKE   CLEAR      1  -3  83 CALM      30.04R
PLATTSBURGH    CLEAR     22   3  44 VRB6      30.11R WCI  14
$$

NYZ001>004-010>016-019>021-290400-
WEST


CITY           SKY/WX    TMP DP  RH WIND       PRES   REMARKS
NIAGARA FALLS  CLEAR     23   5  46 N6        30.24R WCI  16
BUFFALO        CLEAR     21  14  74 SW5       30.23R WCI  15
DUNKIRK        CLEAR     22  13  68 W7        30.26R WCI  13
JAMESTOWN      CLEAR     18   9  68 W7        30.18R WCI   8
WELLSVILLE     FAIR      14   4  64 W12       30.13R WCI   0
ROCHESTER      CLEAR     24   9  52 W9        30.21R WCI  14
PENN YAN       CLEAR     22   7  52 W7        30.17S WCI  13
$$

             KEY
       WCI = WIND CHILL INDEX
       VSB = VISIBILITY
       HX  = HEAT INDEX
$$



USA.gov is the U.S. government's official web portal to all federal, state and local government web resources and services.